Location: Mentone
(34.5413°N, 85.5351°W)
Time: 15:38:42
(UTC-05:00)

S-56A Canister/Altair - Visible Passes

Search period start: 01 October 2016 00:00
Search period end: 11 October 2016 00:00
Orbit: 640 x 2494 km, 38.9° (Epoch: 30 September)

Date Brightness Start Highest point End Pass type
(mag) Time Alt. Az. Time Alt. Az. Time Alt. Az.
01 Oct 9.2 20:28:09 10° WNW 20:36:09 65° SSW 20:40:35 40° SE visible
01 Oct 10.7 22:33:21 10° W 22:38:02 23° WSW 22:38:02 23° WSW visible
02 Oct 9.0 19:55:57 10° WNW 20:03:26 70° SSW 20:10:02 27° SE visible
02 Oct 10.4 22:00:42 10° W 22:07:30 29° SW 22:07:30 29° SW visible
03 Oct 8.8 19:23:47 10° WNW 19:30:48 75° SSW 19:39:36 16° ESE visible
03 Oct 10.2 21:28:11 10° W 21:35:51 32° SW 21:37:04 31° SSW visible
04 Oct 8.7 18:51:40 10° WNW 18:58:13 81° SSW 19:08:20 10° ESE visible
04 Oct 10.0 20:55:45 10° W 21:03:06 34° SSW 21:06:46 28° S visible
05 Oct 9.9 20:23:25 10° W 20:30:25 37° SSW 20:36:35 21° SSE visible
05 Oct 11.2 22:33:40 10° SW 22:34:05 10° SW 22:34:05 10° SW visible
06 Oct 9.7 19:51:09 10° W 19:57:47 40° SSW 20:06:33 12° SSE visible
06 Oct 11.1 21:59:24 10° WSW 22:02:47 12° SW 22:04:04 12° SSW visible
07 Oct 9.5 19:18:56 10° W 19:25:13 43° SSW 19:34:27 10° SE visible
07 Oct 11.0 21:26:02 10° WSW 21:30:05 14° SW 21:34:14 11° SSW visible
08 Oct 9.3 18:46:46 10° W 18:52:42 47° SSW 19:01:28 10° SE visible
08 Oct 10.9 20:53:02 10° WSW 20:57:25 15° SW 21:02:39 10° S visible
09 Oct 10.8 20:20:16 10° WSW 20:24:48 16° SW 20:30:23 10° S visible
10 Oct 10.6 19:47:40 10° WSW 19:52:15 18° SW 19:57:59 10° S visible
